[[{"header":{"parameterUnit":"m.s-1","parameterCategory":1,"la1":30.2992,"la2":30.254,"lo1":-89.0895,"lo2":-89.0443,"dy":0.0025,"dx":0.0025,"nx":19,"ny":19,"refTime":"2026-03-12T03:00:00:Z","depth":0,"parameterNumber":2,"parameterNumberName":"U-component_of_WINDS"},"data":[0,0,0,-1.2345,-1.2346,-1.2361,-1.2362,-1.2385,-1.2385,0,0,0,0,0,0,0,0,0,0,0,-1.2343,-1.2343,-1.2345,-1.2346,-1.2361,-1.2362,-1.2385,-1.2385,0,0,0,0,0,0,0,0,0,0,0,-1.2343,-1.2343,-1.2344,-1.2346,-1.2361,-1.2362,-1.2385,-1.2372,0,0,0,0,0,0,0,0,0,0,-1.2356,-1.2357,-1.2343,-1.2344,-1.2346,-1.2361,-1.2362,-1.2371,-1.2373,-1.2379,0,-1.2386,0,-1.2386,-1.2387,-1.2387,0,0,0,-1.2344,-1.2355,-1.2357,-1.2344,-1.2346,-1.2361,-1.2354,-1.2372,-1.2374,-1.2381,-1.2387,-1.2387,-1.2387,-1.2387,-1.2387,-1.2432,-1.2432,0,0,-1.2343,-1.2347,-1.2356,-1.2358,-1.2356,-1.2353,-1.2354,-1.2373,-1.2379,-1.2387,-1.2388,-1.2387,-1.2387,-1.2388,-1.2432,-1.2432,0,0,0,-1.2342,-1.2347,-1.2348,-1.2358,-1.236,-1.2354,-1.2355,-1.2378,-1.2378,-1.2388,-1.2387,-1.2388,-1.2388,-1.2431,-1.2432,-1.245,0,0,0,-1.2341,-1.2346,-1.2348,-1.2351,-1.236,-1.2369,-1.236,-1.2377,-1.2379,-1.2387,-1.2388,-1.2388,-1.2431,-1.2432,-1.2449,-1.2458,0,0,0,-1.2341,-1.2346,-1.2349,-1.2351,-1.2358,-1.2369,-1.237,-1.2377,-1.2378,-1.2387,-1.2388,-1.2431,-1.2432,-1.2448,-1.2457,-1.2471,0,0,0,-1.2343,-1.2366,-1.235,-1.2375,-1.2358,-1.238,-1.237,-1.2386,-1.2396,-1.2388,-1.2431,-1.2432,-1.2448,-1.2455,-1.247,-1.2484,-1.249,0,0,-1.2375,-1.237,-1.2384,-1.237,-1.2396,-1.2377,-1.2406,-1.2411,-1.2408,-1.2424,-1.2425,-1.2449,-1.2456,-1.2471,-1.2523,-1.2528,0,0,0,-1.2396,-1.2406,-1.2412,-1.2422,-1.2425,-1.2429,-1.2429,-1.2431,-1.2444,-1.2417,-1.2458,-1.2462,-1.247,-1.2477,-1.2481,-1.2488,-1.2435,-1.2435,-1.2435,-1.2448,-1.2442,-1.2465,-1.2461,-1.2469,-1.2468,-1.2475,-1.2477,-1.2469,-1.2478,-1.2484,-1.2516,-1.2524,-1.2527,-1.2534,-1.249,-1.249,-1.249,-1.249,-1.2494,-1.2508,-1.2495,-1.2513,-1.2506,-1.2521,-1.252,-1.2514,-1.2527,-1.2512,-1.2519,-1.2504,-1.2533,-1.2538,-1.2492,-1.2491,-1.2491,-1.2491,-1.2491,-1.2528,-1.2533,-1.2534,-1.2545,-1.2554,-1.2548,-1.2561,-1.2554,-1.2548,-1.2555,-1.2559,-1.2559,-1.2557,-1.2557,-1.2557,-1.2557,-1.2558,-1.2558,-1.2558,-1.2562,-1.2562,-1.2574,-1.2578,-1.2582,-1.2587,-1.2584,-1.2588,-1.259,-1.2585,-1.2585,-1.2576,-1.2536,-1.2527,-1.2559,-1.2559,-1.2559,-1.2559,-1.2559,-1.2612,-1.2599,-1.2616,-1.262,-1.2624,-1.2633,-1.2624,-1.2632,-1.2634,-1.264,-1.2628,-1.26,-1.2596,-1.2592,-1.2584,-1.263,-1.263,-1.263,-1.263,-1.2641,-1.2637,-1.2652,-1.2658,-1.2664,-1.2657,-1.2675,-1.2673,-1.2669,-1.2669,-1.2661,-1.265,-1.2647,-1.2644,-1.2639,-1.2632,-1.2688,-1.2688,-1.2688,-1.267,-1.2667,-1.2684,-1.2679,-1.2681,-1.2683,-1.27,-1.2707,-1.2699,-1.2691,-1.2669,-1.2667,-1.2648,-1.2643,-1.2635,-1.2628,-1.2614,0,0]},{"header":{"parameterUnit":"m.s-1","parameterCategory":1,"la1":30.2992,"la2":30.254,"lo1":-89.0895,"lo2":-89.0443,"dy":0.0025,"dx":0.0025,"nx":19,"ny":19,"refTime":"2026-03-12T03:00:00:Z","depth":0,"parameterNumber":3,"parameterNumberName":"V-component_of_WINDS"},"data":[0,0,0,-8.4141,-8.4145,-8.4341,-8.4341,-8.4595,-8.4597,0,0,0,0,0,0,0,0,0,0,0,-8.4087,-8.4089,-8.414,-8.4145,-8.4341,-8.4341,-8.4594,-8.4597,0,0,0,0,0,0,0,0,0,0,0,-8.4086,-8.4088,-8.4091,-8.4146,-8.434,-8.4341,-8.4594,-8.4444,0,0,0,0,0,0,0,0,0,0,-8.4253,-8.4209,-8.4088,-8.4091,-8.4147,-8.434,-8.4341,-8.4437,-8.4454,-8.4508,0,-8.456,0,-8.4583,-8.4614,-8.4615,0,0,0,-8.4141,-8.4195,-8.4244,-8.4091,-8.4149,-8.434,-8.4251,-8.4446,-8.4465,-8.453,-8.4564,-8.4573,-8.4587,-8.4616,-8.4617,-8.4955,-8.4957,0,0,-8.413,-8.4123,-8.4231,-8.4257,-8.423,-8.4245,-8.4257,-8.4457,-8.4492,-8.4565,-8.4579,-8.4591,-8.4618,-8.462,-8.4953,-8.4955,0,0,0,-8.4102,-8.4116,-8.416,-8.4247,-8.4282,-8.4251,-8.4265,-8.4483,-8.4499,-8.4581,-8.4594,-8.4619,-8.4622,-8.4951,-8.4954,-8.5038,0,0,0,-8.4095,-8.41,-8.4156,-8.4154,-8.4278,-8.4386,-8.4286,-8.4485,-8.4508,-8.4593,-8.4619,-8.4625,-8.4949,-8.4953,-8.5032,-8.5079,0,0,0,-8.4072,-8.4097,-8.4127,-8.4153,-8.4237,-8.4382,-8.4409,-8.449,-8.4516,-8.4615,-8.4626,-8.4948,-8.4952,-8.5026,-8.5069,-8.5168,0,0,0,-8.4045,-8.4195,-8.4128,-8.4301,-8.4236,-8.4434,-8.4408,-8.4555,-8.465,-8.4621,-8.495,-8.4954,-8.5024,-8.5063,-8.5162,-8.5251,-8.5287,0,0,-8.4231,-8.4217,-8.432,-8.4266,-8.4475,-8.4404,-8.4625,-8.4716,-8.4729,-8.4878,-8.4887,-8.5034,-8.5068,-8.5167,-8.5491,-8.552,0,0,0,-8.4377,-8.445,-8.4507,-8.46,-8.4677,-8.4746,-8.4805,-8.484,-8.4967,-8.4806,-8.5096,-8.5116,-8.5174,-8.5217,-8.5242,-8.5293,-8.4973,-8.4973,-8.4972,-8.4628,-8.4642,-8.4813,-8.4851,-8.4941,-8.5003,-8.5077,-8.5134,-8.5116,-8.5185,-8.523,-8.5426,-8.5476,-8.5494,-8.5547,-8.5277,-8.5277,-8.5277,-8.5278,-8.4903,-8.5011,-8.499,-8.5149,-8.5161,-8.5293,-8.5359,-8.5344,-8.5468,-8.5392,-8.5443,-8.5361,-8.5526,-8.5572,-8.5284,-8.5283,-8.5282,-8.5281,-8.5281,-8.5071,-8.5125,-8.5167,-8.5306,-8.5411,-8.5442,-8.5565,-8.557,-8.5576,-8.5627,-8.5676,-8.5674,-8.5675,-8.565,-8.565,-8.5651,-8.5652,-8.5652,-8.5653,-8.5228,-8.5274,-8.5378,-8.5475,-8.5538,-8.562,-8.5686,-8.5746,-8.5815,-8.5809,-8.5809,-8.5787,-8.554,-8.5478,-8.5663,-8.5661,-8.566,-8.5659,-8.5658,-8.5503,-8.5443,-8.5604,-8.5668,-8.5784,-8.5889,-8.5896,-8.602,-8.607,-8.6131,-8.6098,-8.5914,-8.5899,-8.588,-8.5829,-8.6094,-8.6094,-8.6094,-8.6094,-8.5646,-8.564,-8.5809,-8.591,-8.6009,-8.6033,-8.6215,-8.6268,-8.6312,-8.6345,-8.6307,-8.624,-8.622,-8.6217,-8.619,-8.6143,-8.6482,-8.6482,-8.6483,-8.5817,-8.5822,-8.5976,-8.6024,-8.6116,-8.6194,-8.6366,-8.6481,-8.6518,-8.6499,-8.6371,-8.6354,-8.6246,-8.621,-8.6186,-8.6144,-8.6058,0,0]}]]